CW9861 Weather Reports


time (UTC)temp
F
wind
direction
speed
knots
gust
knots
rain 1hr
in
rain 24hr
in
rain mn
in
humidity
%
barometer
mb
20260903070957 71 266 0.0 0.0 0.00 0.00 0.00 90 1012.3
20260903070458 71 266 0.0 0.0 0.00 0.00 0.00 90 1012.3
20260903065958 71 266 0.0 0.0 0.00 0.00 0.00 90 1012.2
20260903065458 71 266 0.0 0.0 0.00 0.00 0.00 90 1012.3
20260903064957 71 266 0.0 0.0 0.00 0.00 0.00 90 1012.3
20260903064457 71 266 0.0 0.0 0.00 0.00 0.00 90 1012.3
20260903063957 70 266 0.0 0.0 0.00 0.00 0.00 90 1012.4
20260903063458 70 266 0.0 0.0 0.00 0.00 0.00 90 1012.4
20260903062957 70 266 0.0 0.0 0.00 0.00 0.00 89 1012.4
20260903062457 70 266 0.0 0.0 0.00 0.00 0.00 89 1012.4
20260903061958 70 266 0.0 0.0 0.00 0.00 0.00 89 1012.4
20260903061457 70 266 0.0 0.0 0.00 0.00 0.00 89 1012.4
20260903060958 70 266 0.0 0.0 0.00 0.00 0.00 89 1012.4
20260903060457 70 266 0.0 0.0 0.00 0.00 0.00 89 1012.4
20260903055958 70 266 0.0 0.0 0.00 0.00 0.00 89 1012.4
20260903055458 70 266 0.0 0.0 0.00 0.00 0.00 89 1012.4
20260903054958 70 266 0.0 0.0 0.00 0.00 0.00 89 1012.4
20260903054458 70 266 0.0 0.0 0.00 0.00 0.00 89 1012.4
20260903053958 70 266 0.0 0.0 0.00 0.00 0.00 89 1012.4
20260903050457 71 266 0.0 0.0 0.00 0.00 0.00 88 1012.3
20260903045958 71 266 0.0 0.0 0.00 0.00 0.00 88 1012.3
20260903045457 71 266 0.0 0.0 0.00 0.00 0.00 88 1012.2
20260903044957 71 266 0.0 0.0 0.00 0.00 0.00 88 1012.1
20260903044457 71 266 0.0 0.0 0.00 0.00 0.00 88 1012.1
20260903043957 72 266 0.0 0.0 0.00 0.00 0.00 88 1012.0
20260903043457 72 266 0.0 0.0 0.00 0.00 0.00 88 1012.0
20260903042959 72 266 0.0 0.0 0.00 0.00 0.00 88 1012.0
20260903042458 72 266 0.0 0.0 0.00 0.00 0.00 88 1011.9
20260903041957 72 266 0.0 0.0 0.00 0.00 0.00 88 1011.9
20260903041458 72 266 0.0 0.9 0.00 0.00 0.00 88 1011.9
20260903040958 72 266 0.0 0.9 0.00 0.00 0.00 88 1011.8
20260903040458 73 266 0.0 0.0 0.00 0.00 0.00 88 1011.9
20260903040003 73 266 0.0 0.0 0.00 0.00 0.00 88 1011.8
20260903035500 73 266 0.0 0.0 0.00 0.00 0.00 88 1011.7
20260903034959 73 266 0.0 0.0 0.00 0.00 0.00 88 1011.7
20260903034459 73 266 0.0 0.0 0.00 0.00 0.00 88 1011.8
20260903033959 73 266 0.0 0.0 0.00 0.00 0.00 88 1011.7
20260903033459 74 266 0.0 0.0 0.00 0.00 0.00 88 1011.7
20260903032959 74 266 0.0 0.0 0.00 0.00 0.00 88 1011.8
20260903032500 74 266 0.0 0.0 0.00 0.00 0.00 88 1011.7
20260903031959 74 266 0.0 0.0 0.00 0.00 0.00 88 1011.7
20260903031459 74 266 0.0 0.0 0.00 0.00 0.00 88 1011.8
20260903030959 74 266 0.0 0.0 0.00 0.00 0.00 88 1011.8
20260903030459 75 266 0.0 0.0 0.00 0.00 0.00 88 1011.9
20260903022958 76 266 0.0 0.0 0.00 0.00 0.00 86 1012.1
20260903022458 76 266 0.0 0.0 0.00 0.00 0.00 86 1012.1
20260903021958 76 266 0.0 0.0 0.00 0.00 0.00 86 1012.1
20260903021459 76 266 0.0 0.0 0.00 0.00 0.00 86 1012.1
20260903020958 76 266 0.0 0.0 0.00 0.00 0.00 86 1012.1
20260903020458 76 266 0.0 0.0 0.00 0.00 0.00 86 1012.1
20260903020000 76 266 0.0 0.0 0.00 0.00 0.00 86 1012.1
20260903015459 77 266 0.0 0.0 0.00 0.00 0.00 86 1012.1
20260903015000 77 266 0.0 0.0 0.00 0.00 0.00 86 1012.0
20260903014459 77 266 0.0 0.0 0.00 0.00 0.00 86 1012.0
20260903014000 77 266 0.0 0.9 0.00 0.00 0.00 86 1011.9
20260903013500 77 266 0.0 0.9 0.00 0.00 0.00 86 1011.9
20260903012959 77 266 0.0 0.9 0.00 0.00 0.00 86 1011.9
20260903012500 77 266 0.0 0.9 0.00 0.00 0.00 86 1011.9
20260903011959 78 259 0.0 1.7 0.00 0.00 0.00 85 1011.8
20260903011459 78 207 0.0 1.7 0.00 0.00 0.00 85 1011.8
20260903010959 78 212 0.0 0.9 0.00 0.00 0.00 85 1011.6
20260903010500 78 212 0.0 0.9 0.00 0.00 0.00 85 1011.8
20260903010000 78 212 0.0 0.9 0.00 0.00 0.00 84 1011.8
20260903005459 79 288 0.0 0.0 0.00 0.00 0.00 84 1011.6
20260903004958 79 288 0.0 0.0 0.00 0.00 0.00 84 1011.4
20260903004458 79 288 0.0 0.0 0.00 0.00 0.00 83 1011.5
20260903003958 79 288 0.0 0.9 0.00 0.00 0.00 83 1011.3
20260903003458 79 288 0.0 0.9 0.00 0.00 0.00 83 1011.3
20260903002958 80 288 0.0 0.9 0.00 0.00 0.00 83 1011.2
20260903002459 80 288 0.0 0.9 0.00 0.00 0.00 82 1011.2
20260902234459 81 266 0.0 1.7 0.00 0.00 0.00 81 1011.4
20260902233958 81 290 0.0 1.7 0.00 0.00 0.00 81 1011.2
20260902233459 81 336 0.0 1.7 0.00 0.00 0.00 80 1011.1
20260902232958 81 330 0.0 1.7 0.00 0.00 0.00 80 1011.1
20260902232459 81 324 0.9 1.7 0.00 0.00 0.00 81 1011.0
20260902231958 81 307 0.0 1.7 0.00 0.00 0.00 81 1011.0
20260902231458 81 276 0.0 0.9 0.00 0.00 0.00 80 1010.9
20260902230958 81 311 0.0 2.6 0.00 0.00 0.00 81 1010.9
20260902230458 81 258 0.9 2.6 0.00 0.00 0.00 80 1011.0
20260902225958 81 266 0.0 0.9 0.00 0.00 0.00 81 1011.0
20260902225458 81 255 0.0 0.9 0.00 0.00 0.00 81 1011.1
20260902224958 81 323 0.0 2.6 0.00 0.00 0.00 81 1011.0
20260902224459 81 4 0.0 2.6 0.00 0.00 0.00 80 1011.1
20260902223958 81 236 0.9 2.6 0.00 0.00 0.00 80 1011.2
20260902223458 81 243 0.0 0.9 0.00 0.00 0.00 80 1011.4
20260902222958 81 302 0.0 1.7 0.00 0.00 0.00 80 1011.4
20260902222458 81 234 0.0 2.6 0.00 0.00 0.00 79 1011.3
20260902221959 81 306 0.0 2.6 0.00 0.00 0.00 79 1011.2
20260902221457 82 283 0.0 5.2 0.00 0.00 0.00 79 1011.4
20260902220958 82 253 0.9 5.2 0.00 0.00 0.00 78 1011.6
20260902220458 82 341 0.9 4.3 0.00 0.00 0.00 78 1011.8
20260902215959 83 281 0.9 3.5 0.00 0.00 0.00 77 1011.6
20260902215458 83 228 0.9 7.0 0.00 0.00 0.00 78 1011.7
20260902214958 83 280 0.0 3.5 0.00 0.00 0.00 78 1011.6
20260902214458 83 215 0.9 5.2 0.00 0.00 0.00 78 1011.3
20260902213958 83 326 0.9 3.5 0.00 0.00 0.00 78 1011.2
20260902213458 84 249 0.9 3.5 0.00 0.00 0.00 77 1011.3
20260902212958 84 260 0.9 3.5 0.00 0.00 0.00 78 1011.2
20260902212458 84 222 0.0 4.3 0.00 0.00 0.00 77 1011.1
20260902211958 84 239 0.9 4.3 0.00 0.00 0.00 76 1011.0
20260902211458 84 254 0.0 2.6 0.00 0.00 0.00 79 1011.1
20260902210958 83 197 0.9 5.2 0.00 0.00 0.00 79 1011.1
20260902210458 83 284 0.9 8.7 0.00 0.00 0.00 77 1011.6
20260902210000 84 199 2.6 9.6 0.00 0.00 0.00 74 1012.1
20260902205459 85 334 1.7 5.2 0.00 0.00 0.00 72 1012.0
20260902205000 85 340 2.6 5.2 0.00 0.00 0.00 71 1011.6
20260902204459 86 324 0.9 6.1 0.00 0.00 0.00 72 1011.4
20260902203959 86 297 1.7 6.1 0.00 0.00 0.00 70 1011.3
20260902203459 87 292 1.7 7.0 0.00 0.00 0.00 71 1011.2
20260902203000 87 337 1.7 7.0 0.00 0.00 0.00 71 1011.2
20260902202459 88 317 2.6 5.2 0.00 0.00 0.00 72 1011.4
20260902201959 88 284 0.9 6.1 0.00 0.00 0.00 74 1011.3
20260902201459 88 244 1.7 5.2 0.00 0.00 0.00 74 1011.4
20260902200959 88 204 0.9 5.2 0.00 0.00 0.00 72 1011.4
20260902200459 88 290 1.7 5.2 0.00 0.00 0.00 72 1011.4
20260902200000 88 343 1.7 4.3 0.00 0.00 0.00 73 1011.4
20260902195458 89 245 0.9 4.3 0.00 0.00 0.00 71 1011.4
20260902194958 89 255 0.9 4.3 0.00 0.00 0.00 71 1011.4
20260902194458 89 230 1.7 6.1 0.00 0.00 0.00 70 1011.2
20260902193957 90 196 1.7 4.3 0.00 0.00 0.00 72 1011.3
20260902193458 90 295 1.7 7.8 0.00 0.00 0.00 72 1011.4
20260902192958 90 230 1.7 7.8 0.00 0.00 0.00 70 1011.6
20260902192458 90 297 1.7 5.2 0.00 0.00 0.00 70 1011.6
20260902191958 89 320 0.9 6.1 0.00 0.00 0.00 74 1011.7
20260902191459 89 296 0.9 6.1 0.00 0.00 0.00 73 1011.7
20260902190958 89 235 0.9 4.3 0.00 0.00 0.00 73 1011.8
20260902190458 90 216 1.7 4.3 0.00 0.00 0.00 72 1012.0
20260902185959 89 309 0.9 3.5 0.00 0.00 0.00 73 1012.1
20260902185458 88 236 1.7 3.5 0.00 0.00 0.00 75 1012.2
20260902184958 88 339 1.7 3.5 0.00 0.00 0.00 74 1012.2
20260902184458 87 276 0.9 5.2 0.00 0.00 0.00 74 1012.1
20260902183958 88 284 1.7 5.2 0.00 0.00 0.00 73 1011.9
20260902183458 89 241 0.9 7.8 0.00 0.00 0.00 74 1011.8
20260902182958 89 11 2.6 7.8 0.00 0.00 0.00 75 1011.9
20260902182458 89 172 1.7 4.3 0.00 0.00 0.00 75 1011.8
20260902181958 89 191 2.6 7.8 0.00 0.00 0.00 73 1012.0
20260902181458 89 230 1.7 7.8 0.00 0.00 0.00 75 1012.1
20260902180959 89 195 1.7 4.3 0.00 0.00 0.00 73 1012.1
20260902180458 88 231 1.7 3.5 0.00 0.00 0.00 74 1012.2
20260902175958 87 163 1.7 8.7 0.00 0.00 0.00 77 1012.4
20260902175458 87 324 3.5 8.7 0.00 0.00 0.00 76 1012.4
20260902174958 88 215 3.5 6.1 0.00 0.00 0.00 75 1012.3
20260902174459 87 197 2.6 6.1 0.00 0.00 0.00 79 1012.5
20260902173959 87 208 2.6 7.0 0.00 0.00 0.00 77 1012.5
20260902173458 87 194 1.7 7.0 0.00 0.00 0.00 78 1012.5
20260902172958 86 203 1.7 6.1 0.00 0.00 0.00 80 1012.7
20260902172458 86 251 0.9 3.5 0.00 0.00 0.00 81 1012.8
20260902171958 85 174 0.0 5.2 0.00 0.00 0.00 83 1012.8
20260902171457 85 242 0.9 7.0 0.00 0.00 0.00 82 1012.8
20260902170958 85 113 1.7 7.0 0.00 0.00 0.00 81 1012.9
20260902170458 85 236 1.7 4.3 0.00 0.00 0.00 80 1012.9
20260902165958 86 236 1.7 4.3 0.00 0.00 0.00 82 1012.9
20260902165457 85 17 0.0 2.6 0.00 0.00 0.00 82 1013.0
20260902164958 84 155 0.9 2.6 0.00 0.00 0.00 82 1013.1
20260902164457 85 190 0.9 4.3 0.00 0.00 0.00 81 1013.1
20260902163958 85 234 1.7 3.5 0.00 0.00 0.00 80 1013.1
20260902163458 84 207 0.0 2.6 0.00 0.00 0.00 83 1013.0
20260902162958 84 214 0.9 1.7 0.00 0.00 0.00 81 1013.0
20260902162458 84 215 0.0 3.5 0.00 0.00 0.00 81 1013.0
20260902161957 84 240 0.9 4.3 0.00 0.00 0.00 80 1012.9
20260902161458 84 170 1.7 4.3 0.00 0.00 0.00 80 1013.0
20260902160958 84 165 1.7 2.6 0.00 0.00 0.00 79 1013.0
20260902160458 85 120 1.7 2.6 0.00 0.00 0.00 78 1013.0
20260902155959 84 212 0.9 3.5 0.00 0.00 0.00 78 1012.8
20260902155500 84 259 0.0 4.3 0.00 0.00 0.00 81 1013.0
20260902154959 83 238 1.7 4.3 0.00 0.00 0.00 81 1013.1
20260902154459 83 176 0.9 4.3 0.00 0.00 0.00 83 1013.1
20260902153959 83 228 1.7 4.3 0.00 0.00 0.00 82 1013.2
20260902153459 82 181 1.7 3.5 0.00 0.00 0.00 82 1013.2
20260902152959 82 189 0.9 2.6 0.00 0.00 0.00 81 1013.3
20260902152459 81 47 0.0 0.9 0.00 0.00 0.00 84 1013.2
20260902151959 81 53 0.0 1.7 0.00 0.00 0.00 83 1013.4
20260902151459 81 203 0.0 1.7 0.00 0.00 0.00 81 1013.4
20260902150958 81 195 0.0 1.7 0.00 0.00 0.00 82 1013.3
20260902150459 81 298 0.0 1.7 0.00 0.00 0.00 81 1013.3
20260902150000 81 276 0.0 1.7 0.00 0.00 0.00 81 1013.5
20260902145458 81 280 0.9 1.7 0.00 0.00 0.00 81 1013.5
20260902144959 81 261 0.0 2.6 0.00 0.00 0.00 81 1013.4
20260902144459 81 356 0.9 3.5 0.00 0.00 0.00 83 1013.5
20260902143959 81 207 0.0 3.5 0.00 0.00 0.00 82 1013.5
20260902143458 81 276 0.9 3.5 0.00 0.00 0.00 81 1013.4
20260902142959 81 334 0.0 0.9 0.00 0.00 0.00 85 1013.4
20260902142459 80 241 0.0 1.7 0.00 0.00 0.00 85 1013.3
20260902142000 80 342 0.9 1.7 0.00 0.00 0.00 86 1013.3
20260902141459 79 333 0.0 1.7 0.00 0.00 0.00 86 1013.4
20260902140959 78 318 0.9 2.6 0.00 0.00 0.00 88 1013.4
20260902140500 78 241 0.0 3.5 0.00 0.00 0.00 88 1013.7
20260902135958 78 259 1.7 3.5 0.00 0.00 0.00 88 1013.7
20260902135458 77 276 1.7 7.0 0.00 0.00 0.00 88 1013.7
20260902134958 78 241 0.9 7.0 0.00 0.00 0.00 88 1013.8
20260902134457 78 276 1.7 5.2 0.00 0.00 0.00 88 1013.7
20260902133958 78 317 0.9 7.8 0.00 0.00 0.00 88 1013.6
20260902133458 78 336 2.6 13.9 0.00 0.00 0.00 88 1013.4
20260902132958 79 349 3.5 6.1 0.00 0.00 0.00 89 1013.6
20260902125000 74 222 0.9 1.7 0.00 0.00 0.00 92 1013.0
20260902124459 74 198 0.0 3.5 0.00 0.00 0.00 92 1012.9
20260902123959 74 202 0.9 4.3 0.00 0.00 0.00 91 1012.9
20260902123459 73 238 0.9 3.5 0.00 0.00 0.00 91 1013.1
20260902123000 73 206 0.0 1.7 0.00 0.00 0.00 92 1013.1
20260902122459 73 228 0.0 1.7 0.00 0.00 0.00 91 1013.2
20260902114459 72 284 0.0 0.0 0.00 0.00 0.00 91 1013.4
20260902113959 72 284 0.0 0.0 0.00 0.00 0.00 91 1013.4
20260902113459 72 284 0.0 0.0 0.00 0.00 0.00 91 1013.4
20260902112959 72 284 0.0 0.0 0.00 0.00 0.00 91 1013.3
20260902112459 72 284 0.0 0.0 0.00 0.00 0.00 91 1013.4
20260902111959 72 284 0.0 0.0 0.00 0.00 0.00 91 1013.4
20260902104458 73 284 0.0 0.0 0.00 0.00 0.00 91 1013.3
20260902103958 73 284 0.0 0.0 0.00 0.00 0.00 91 1013.2
20260902103458 73 284 0.0 0.0 0.00 0.00 0.00 91 1013.2
20260902102957 73 284 0.0 0.0 0.00 0.00 0.00 91 1013.1
20260902102457 73 284 0.0 0.0 0.00 0.00 0.00 91 1013.2
20260902101957 73 284 0.0 0.0 0.00 0.00 0.00 91 1013.2
20260902101457 73 284 0.0 0.0 0.00 0.00 0.00 91 1013.2
20260902100958 73 284 0.0 0.0 0.00 0.00 0.00 91 1013.4
20260902100457 73 284 0.0 0.0 0.00 0.00 0.00 91 1013.4
20260902100000 73 284 0.0 0.0 0.00 0.00 0.00 90 1013.4
20260902095459 74 284 0.0 0.0 0.00 0.00 0.00 90 1013.4
20260902094958 74 284 0.0 0.0 0.00 0.00 0.00 91 1013.3
20260902094458 74 284 0.0 0.0 0.00 0.00 0.00 90 1013.3
20260902093958 74 284 0.0 0.0 0.00 0.00 0.00 90 1013.3
20260902093458 74 284 0.0 0.9 0.00 0.00 0.00 90 1013.3
20260902093000 74 284 0.0 0.9 0.00 0.00 0.00 90 1013.3
20260902092459 74 284 0.0 0.9 0.00 0.00 0.00 91 1013.3
20260902091959 74 284 0.0 0.0 0.00 0.00 0.00 91 1013.2
20260902091459 75 284 0.0 0.0 0.00 0.00 0.00 91 1013.2
20260902090958 75 284 0.0 0.0 0.00 0.00 0.00 91 1013.1
20260902090459 75 284 0.0 0.0 0.00 0.00 0.00 91 1013.1
20260902085958 75 284 0.0 0.0 0.00 0.00 0.00 91 1013.0
20260902085458 75 284 0.0 0.0 0.00 0.00 0.00 91 1013.1
20260902084957 75 284 0.0 0.9 0.00 0.00 0.00 91 1013.1
20260902084458 75 284 0.0 0.9 0.00 0.00 0.00 91 1013.0
20260902083957 75 294 0.0 2.6 0.00 0.00 0.00 91 1012.9
20260902083457 75 335 0.0 2.6 0.00 0.00 0.00 91 1012.7
20260902082957 75 328 0.9 1.7 0.00 0.00 0.00 91 1012.5
20260902082457 75 289 0.0 1.7 0.00 0.00 0.00 91 1012.4
20260902081958 75 257 0.9 1.7 0.00 0.00 0.00 91 1012.4
20260902081458 75 213 0.9 1.7 0.00 0.00 0.00 91 1012.3
20260902080957 74 318 0.9 1.7 0.00 0.00 0.00 91 1012.3
20260902080459 74 297 0.9 2.6 0.00 0.00 0.00 91 1012.4
20260902072458 73 229 0.0 0.9 0.00 0.00 0.00 90 1012.5